Location: Winnipeg
(49.8830°N, 97.1670°W)
Time: 04:24:04
(UTC-05:00)

Envisat - Pass Details

Date: 11 March 2024
Orbit: 762 x 764 km, 98.3° (Epoch: 21 April)

Event Time Altitude Azimuth Distance (km) Brightness Sun altitude
Rises 05:43:03 0° 10° (N) 3,243 6.7 -20.9°
Reaches altitude 10° 05:45:26 10° 4° (N) 2,312 5.8 -20.5°
Maximum altitude 05:50:17 46° 292° (WNW) 1,019 3.3 -19.8°
Enters shadow 05:51:26 39° 256° (WSW) 1,130 3.3 -19.6°
